www.pogodaiklimat.ru

Погода и климат >> Архив погоды >> Россия >> Кабардино-Балкария >> Прохладный


ПОГОДА в Прохладный

  • Прогноз погоды в Прохладный
  • Монитор погоды в Прохладный

АРХИВ ПОГОДЫ в Прохладный

Время (UTC), дата Ветер
(напр.,м/с)
 
Видим.   Явления Облачность Т
(С)
Тd
(С)
f
(%)
Тe
(С)
Тes
(С)
Комфортность P
(гПа)
Po
(гПа)
Тmin
(С)
Tmax
(С)
R
(мм)
R24
(мм)
S
(см)
06 9.06 СВ 1 20 км ясно +26.2 +15.8 53 +29 +43 жарко 1018.4 995.6
09 9.06 СВ 3 20 км 1/1 600 м
[Cu med, cong]
+31.3 +10.7 28 +31 +46 жарко 1017.8 995.3
12 9.06 В 3 20 км 1/1 600 м
[Cu med, cong]
+32.1 +8.8 24 +31 +41 жарко 1016.8 994.4
15 9.06 В 1 20 км 6/3 600 м
[Cu Sc Ac cast Ci sp]
+29.3 +9.2 29 +29 +30 жарко 1016.4 993.8 +32.9
18 9.06 В 3 20 км 4/0
[Ac cast Ci fib]
+25.0 +7.0 32 +25 +25 комфорт 1017.7 994.7
21 9.06 штиль 0 20 км ясно +19.8 +7.9 46 +21 +21 комфорт 1017.5 994.2
00 10.06 СВ 1 20 км ясно +16.4 +9.3 63 +17 +17 1017.7 994.1
03 10.06 штиль 0 20 км ясно +17.6 +10.2 62 +18 +20 1018.4 994.8 +15.0
06 10.06 В 2 20 км 3/0
[Ci fib]
+24.4 +12.6 48 +26 +38 жарко 1017.4 994.4
09 10.06 В 3 20 км 3/0
[Ci fib]
+29.8 +10.3 30 +30 +45 жарко 1015.8 993.2
12 10.06 В 3 20 км 3/0
[Ci fib]
+32.9 +9.8 24 +32 +42 жарко 1013.5 991.2
15 10.06 В 3 20 км 8/0
[Cs]
+30.3 +10.2 29 +30 +32 жарко 1013.0 990.5 +33.3
18 10.06 В 3 20 км 6/3 600 м
[Sc Ac cast]
+25.5 +8.4 34 +26 +26 жарко 1014.1 991.2
21 10.06 СВ 2 20 км 4/0
[As trans]
+20.9 +9.9 49 +23 +23 комфорт 1013.5 990.3
00 11.06 СЗ 1 20 км ясно +17.0 +14.2 84 +18 +18 1012.7 989.3
03 11.06 С 1 20 км 1/0
[Ci fib]
+18.0 +15.2 84 +19 +21 1013.1 989.8 +16.2
06 11.06 С 1 20 км 3/3 600 м
[Cu med, cong]
+24.4 +15.3 57 +27 +37 жарко 1012.2 989.4
09 11.06 В 2 20 км 3/0
[Ci fib]
+29.4 +14.4 40 +31 +50 жарко 1010.5 988.1
12 11.06 В 1 20 км 8/4 600 м
[Cu med, cong Ac trans Ci fib]
+32.0 +13.3 32 +33 +39 жарко 1008.3 986.1
15 11.06 ЮЗ 2 20 км 3/0
[Ci fib]
+31.8 +14.9 36 +34 +36 душно 1007.5 985.3 +33.5
18 11.06 СВ 3 20 км 3/0
[Ci fib]
+26.5 +15.1 50 +29 +29 жарко 1008.3 985.7
21 11.06 СВ 2 20 км 1/0
[Ci fib]
+22.5 +15.0 63 +26 +26 жарко 1008.4 985.5
00 12.06 С 2 20 км ясно +19.0 +14.3 74 +21 +21 комфорт 1008.9 985.7
03 12.06 С 1 20 км ясно +19.4 +14.3 72 +22 +24 комфорт 1009.7 986.6 +17.8
06 12.06 СВ 1 20 км 8/3 600 м
[Cu med, cong Ci fib]
+25.2 +15.6 55 +28 +37 жарко 1009.6 986.8
09 12.06 В 3 20 км 8/3 600 м
[Cu med, cong Ac cast Cc]
+30.2 +14.7 39 +32 +40 жарко 1008.3 986.0
12 12.06 В 2 20 км 9/8 600 м
[Cb cap Ac lent]
+32.1 +11.9 29 +32 +34 жарко 1006.6 984.4
15 12.06 ЮВ 3 20 км 10/10 600 м
[Cb cap]
+27.0 +18.3 59 +32 +32 очень
душно
1007.8 985.3 +33.6
18 12.06 З 2 20 км 10/10 600 м
[Cb cap]
+24.9 +15.9 57 +28 +28 жарко 1008.6 985.9
21 12.06 З 1 20 км 8/0
[Ac lent]
+20.9 +14.6 67 +25 +25 комфорт 1008.6 985.5
00 13.06 З 2 20 км 4/0
[Ac lent]
+19.1 +13.3 69 +21 +21 комфорт 1008.3 985.1
03 13.06 В 1 20 км 8/0
[Ac trans Cc]
+18.5 +13.5 73 +20 +21 1008.9 985.6 +17.2
06 13.06 СЗ 2 20 км 6/0
[Ac lent Cc]
+25.0 +14.5 52 +28 +36 жарко 1009.5 986.8
09 13.06 В 2 20 км 4/0
[Cc]
+30.7 +13.9 36 +32 +50 жарко 1009.0 986.7
12 13.06 В 2 20 км 4/4 600 м
[Cu med, cong]
+33.4 +12.8 29 +34 +41 очень
жарко
1007.7 985.6
15 13.06 ЮЗ 2 20 км в посл. час гроза 8/4 600 м
[Cb cap Ci sp]
+29.7 +12.8 35 +31 +32 жарко 1008.1 985.7 +33.8
18 13.06 З 3
{11}
20 км {гроза} 10/10 600 м
[Cb cap]
+22.5 +14.9 62 +26 +26 жарко 1012.2 989.2
21 13.06 ЮВ 1 20 км 10/10 600 м
[Cb cap]
+21.8 +14.0 61 +25 +25 комфорт 1012.4 989.3
00 14.06 Ю 1 20 км 8/3 600 м
[Sc Ac lent]
+20.2 +15.1 72 +24 +24 комфорт 1012.3 989.1
03 14.06 ЮЗ 1 20 км 8/5 600 м
[Sc Ac lent Ci sp]
+19.9 +15.7 77 +23 +24 комфорт 1013.0 989.8 +18.6
06 14.06 СВ 1 20 км 8/0
[Ac cast Ci]
+28.2 +12.6 38 +30 +39 жарко 1013.3 990.7
09 14.06 СВ 2 20 км 6/3 600 м
[Cu med, cong Ci]
+32.9 +10.0 25 +32 +45 жарко 1012.9 990.6
12 14.06 В 3 20 км 8/4 600 м
[Cu Sc Ac cast Ci]
+34.4 +5.1 16 +32 +36 жарко 1011.6 989.4
15 14.06 С 3
{16}
4000 м гроза, ливневой дождь 10/10 600 м
[Cb cap]
+18.1 +17.9 99 +18 +18 1015.1 991.7 +35.0 52
18 14.06 С 1 2000 м дымка {гроза, ливн. осадки} 9/4 600 м
[Cb cap As trans]
+19.0 +18.9 99 +22 +22 комфорт 1014.6 991.3
21 14.06 СВ 2 4000 м дымка 3/1 600 м
[Sc Ac cast]
+18.7 +18.5 99 +20 +20 1014.8 991.5
00 15.06 СВ 2 4000 м дымка 4/0
[Cs]
+17.2 +16.6 96 +18 +18 1014.3 990.9
03 15.06 СВ 1 4000 м дымка 4/0
[Ci fib]
+18.1 +16.2 89 +19 +21 1014.6 991.3 +16.5 0.3
06 15.06 В 3 20 км 8/8 600 м
[Sc]
+23.4 +17.6 70 +29 +31 душно 1014.4 991.5
09 15.06 ЮВ 2 20 км 4/4 600 м
[Cu med, cong]
+26.8 +16.4 53 +30 +42 душно 1012.7 990.0
12 15.06 Ю 2 20 км 4/4 600 м
[Cu hum]
+30.3 +15.8 42 +33 +41 душно 1010.3 988.0
15 15.06 В 2 20 км 4/4 600 м
[Cu med, cong]
+31.1 +12.6 32 +32 +33 жарко 1009.5 987.2 +31.9
18 15.06 СВ 2 20 км 3/0
[Ci fib]
+24.5 +12.6 47 +26 +26 жарко 1010.8 988.0
21 15.06 В 1 20 км 8/0
[Ci sp]
+20.7 +11.3 55 +24 +24 комфорт 1011.5 988.4
00 16.06 СЗ 1 20 км 6/0
[Ci sp]
+16.6 +12.2 75 +17 +17 1010.7 987.3

 

Местоположение метеостанции Прохладный (Кабардино-Балкария, Россия): широта 43.75 долгота 44.05 высота над уровнем моря 200 м.

В архиве по умолчанию представлена погода в Прохладный за последнюю неделю. Архивные данные за месяц целиком и за предыдущие месяцы, начиная с января 2011 года, Вы можете получить, выбрав интересующий диапазон дат из раскрывающегося списка и нажав кнопку "Ввод!".


*Определитесь, кто Вы:
робот инопланетянин человек

Внимание! Время в таблицах - всемирное. Для получения местного времени необходимо прибавить поправку, которая равна 3 ч.

Смотрите также архив погоды в соседних городах и на ближайших метеорологических станциях:

Погода в Нальчике (Кабардино-Балкария, Россия) (42 км)
Погода в Моздоке (Северная Осетия, Россия) (50 км)
Погода в Георгиевске (Ставропольский край, Россия) (64 км)
Погода в Зеленокумске (Ставропольский край, Россия) (77 км)
Погода в Алагире (Северная Осетия, Россия) (77 км)
Погода в Минеральных Водах (Ставропольский край, Россия) (92 км)
Погода в Назрани (Ингушетия, Россия) (93 км)
Погода в Владикавказе (Северная Осетия, Россия) (95 км)
Погода в Тырныаузе (Кабардино-Балкария, Россия) (100 км)
Погода в Рощино (Ставропольский край, Россия) (102 км)

Пояснения к столбцам:

Ветер - указаны скорость ветра в м/с - средняя за 10 мин, порывы в срок и между сроками (в фигурных скобках) и направление, откуда дует ветер: С - северный, СВ - северо-восточный, В - восточный, ЮВ - юго-восточный, Ю - южный, ЮЗ - юго-западный, З - западный, СЗ - северо-западный.
Видимость - горизонтальная дальность видимости в метрах или километрах. При видимости от 1 до 10 км при отсутствии осадков обычно наблюдается дымка, при ухудшении видимости до 1 км и менее - туман. В сухую погоду видимость может ухудшаться дымом, пылью или мглою.
Явления - указаны атмосферные явления, наблюдавшиеся в срок или в последний час перед сроком; фигурными скобками обозначены явления, наблюдавшиеся между сроками (за 1-3 часа до срока); квадратными скобками обозначены град или гололедные отложения с указанием их диаметра в мм.
Облачность - указаны через наклонную черту общая и нижняя облачность в баллах и высота нижней границы облаков в метрах; квадратными скобками обозначены формы облаков: Ci - перистые, Cs - перисто-слоистые, Cc - перисто-кучевые, Ac - высококучевые, As - высокослоистые, Sc - слоисто-кучевые, Ns - слоисто-дождевые, Cu - кучевые, Cb - кучево-дождевые. Подробнее классификацию облаков см. в Атласе облаков (PDF).
T - Температура воздуха - температура, измеренная на высоте 2 м над землей.
Td - Температура точки росы - температура, при понижении до которой содержащийся в воздухе водяной пар достигнет насыщения.
f - Относительная влажность воздуха - влажноcть воздуха, измеренная на высоте 2 м над землей.
Te - Эффективная температура - температура, которую ощущает одетый по сезону человек в тени. Характеристика душности погоды. При расчете учитывается влияние влажности воздуха и скорости ветра на теплоощущения человека.
Tes - Эффективная температура на солнце - температура, которую ощущает человек, с поправкой на солнечный нагрев. Характеристика знойности погоды. Зависит от высоты солнца над горизонтом, облачности и скорости ветра. Ночью, в пасмурную погоду, а также при ветре 12 м/с и более поправка равна нулю.
P - Атмосферное давление - приведенное к уровню моря атмосферное давление.
Po - Атмосферное давление - измеренное на уровне метеостанции атмосферное давление.
Tmin - Минимальная температура - минимум температуры воздуха на высоте 2 м над землей.
Tmax - Максимальная температура - максимум температуры воздуха на высоте 2 м над землей.
R - Количество осадков - Количество выпавших осадков за период времени, мм. При наведении курсора мыши на число - период времени, за который выпало указанное количество осадков.
R24 - Количество осадков - Количество выпавших осадков за 24 часа, мм.
S - Снежный покров - Высота снежного покрова, см. При наведении курсора мыши на число - состояние снежного покрова и степень покрытия местности в баллах.